Weather History for New Bedford, MA

Change the Weather History Date:

Wednesday, November 30, 2011

  Actual Average Record
Temperature  
Mean Temperature 52 °F -  
Max Temperature 64 °F 47 °F 66 °F (2001)
Min Temperature 41 °F 33 °F 14 °F (1989)
Degree Days  
Heating Degree Days 12    
Growing Degree Days 2 (Base 50)    
Moisture  
Dew Point 48 °F    
Average Humidity 80    
Maximum Humidity 94    
Minimum Humidity 53    
Precipitation  
Precipitation 0.44 in - - ()
Sea Level Pressure  
Sea Level Pressure 29.68 in    
Wind  
Wind Speed 15 mph (SW)    
Max Wind Speed 28 mph    
Max Gust Speed 39 mph    
Visibility 8 miles    
Events Rain    
Averages and records for this station are not official NWS values.
T = Trace of Precipitation, MM = Missing Value Source: NWS Daily Summary

Daily Weather History Graph

Daily Weather History Graph

Search for Another Location

Airport:

Trip Planner

Search our weather history database for the weather conditions in past years. The results will help you decide how hot, cold, wet, or windy it might be!

Date:

Astronomy

Nov. 30, 2011 Rise Set
Actual Time 6:49 AM EST 4:14 PM EST
Civil Twilight 6:19 AM EST 4:45 PM EST
Nautical Twilight 5:44 AM EST 5:20 PM EST
Astronomical Twilight 5:11 AM EST 5:53 PM EST
Moon 11:03 AM EST (11/30) 10:11 PM EST (11/30)
Length of Visible Light 10h 26m
Length of Day
9h 24m
Waxing Crescent, 33% of the Moon is Illuminated
Nov 30
Waxing Crescent
Dec 2
First Quarter
Dec 10
Full
Dec 17
Last Quarter
Dec 24
New

Hourly Weather History & Observations

Time (EST) Temp. Windchill Dew Point Humidity Pressure Visibility Wind Dir Wind Speed Gust Speed Precip Events Conditions
12:01 AM 62.6 °F - 59.0 °F 88% 29.70 in 8.0 mi SSE 23.0 mph 35.7 mph 0.00 in Rain Light Rain
12:18 AM 62.6 °F - 59.0 °F 88% 29.69 in 7.0 mi SSE 23.0 mph 29.9 mph 0.00 in   Overcast
12:32 AM 62.6 °F - 59.0 °F 88% 29.68 in 5.0 mi SSE 17.3 mph 32.2 mph 0.00 in Rain Light Rain
12:53 AM 64.0 °F - 60.1 °F 87% 29.66 in 8.0 mi SSE 23.0 mph 35.7 mph 0.00 in Rain Light Rain
1:14 AM 64.4 °F - 60.8 °F 88% 29.66 in 4.0 mi SSE 27.6 mph 39.1 mph 0.01 in Rain Light Rain
1:51 AM 62.6 °F - 60.8 °F 94% 29.65 in 2.0 mi South 17.3 mph 29.9 mph 0.08 in Rain Heavy Rain
1:53 AM 62.1 °F - 60.1 °F 93% 29.66 in 1.8 mi South 16.1 mph 29.9 mph 0.10 in Rain Heavy Rain
2:12 AM 62.6 °F - 60.8 °F 94% 29.66 in 2.0 mi South 17.3 mph 26.5 mph 0.12 in Rain Rain
2:23 AM 60.8 °F - 59.0 °F 94% 29.63 in 3.0 mi SSW 10.4 mph - 0.16 in Rain Rain
2:33 AM 60.8 °F - 57.2 °F 88% 29.64 in 6.0 mi SSW 13.8 mph 23.0 mph 0.18 in Rain Rain
2:41 AM 59.0 °F - 57.2 °F 94% 29.65 in 9.0 mi SSW 15.0 mph - 0.18 in Rain Light Rain
2:53 AM 57.9 °F - 55.0 °F 90% 29.66 in 7.0 mi SW 11.5 mph 25.3 mph 0.18 in Rain Light Rain
3:53 AM 55.0 °F - 53.1 °F 93% 29.65 in 4.0 mi West 9.2 mph - 0.11 in Rain Rain
4:00 AM 55.4 °F - 51.8 °F 88% 29.66 in 4.0 mi WSW 12.7 mph 20.7 mph 0.01 in Rain Light Rain
4:17 AM 53.6 °F - 51.8 °F 94% 29.67 in 4.0 mi WSW 13.8 mph 20.7 mph 0.05 in Rain Rain
4:31 AM 53.6 °F - 51.8 °F 94% 29.66 in 10.0 mi WSW 11.5 mph - 0.05 in Rain Light Rain
4:45 AM 53.6 °F - 51.8 °F 94% 29.67 in 10.0 mi SW 8.1 mph - 0.05 in   Overcast
4:53 AM 53.1 °F - 51.1 °F 93% 29.67 in 9.0 mi SW 5.8 mph - 0.05 in   Overcast
5:24 AM 53.6 °F - 51.8 °F 94% 29.66 in 10.0 mi SSW 5.8 mph - 0.00 in   Overcast
5:37 AM 53.6 °F - 51.8 °F 94% 29.66 in 10.0 mi SSW 6.9 mph - 0.00 in   Overcast
5:53 AM 53.1 °F - 51.1 °F 93% 29.66 in 10.0 mi South 9.2 mph - 0.00 in   Overcast
6:22 AM 53.6 °F - 51.8 °F 94% 29.66 in 10.0 mi SSW 11.5 mph - N/A   Overcast
6:30 AM 53.6 °F - 50.0 °F 88% 29.67 in 10.0 mi SSW 10.4 mph - N/A   Overcast
6:36 AM 53.6 °F - 50.0 °F 88% 29.66 in 10.0 mi SSW 11.5 mph - N/A   Overcast
6:53 AM 53.1 °F - 46.9 °F 80% 29.68 in 10.0 mi SW 11.5 mph - N/A   Overcast
7:53 AM 51.8 °F - 42.8 °F 71% 29.68 in 10.0 mi SSW 10.4 mph - N/A   Mostly Cloudy
8:53 AM 53.1 °F - 42.1 °F 66% 29.68 in 10.0 mi SW 10.4 mph 20.7 mph N/A   Overcast
9:53 AM 54.0 °F - 39.0 °F 57% 29.67 in 10.0 mi SW 15.0 mph 23.0 mph N/A   Overcast
10:53 AM 53.1 °F - 42.1 °F 66% 29.66 in 10.0 mi SW 19.6 mph 25.3 mph N/A   Mostly Cloudy
11:53 AM 54.0 °F - 39.9 °F 59% 29.65 in 10.0 mi SW 20.7 mph 31.1 mph N/A   Mostly Cloudy
12:53 PM 55.0 °F - 37.9 °F 53% 29.64 in 10.0 mi SW 23.0 mph 33.4 mph N/A   Partly Cloudy
1:53 PM 54.0 °F - 37.9 °F 55% 29.64 in 10.0 mi SW 12.7 mph 24.2 mph N/A   Scattered Clouds
2:53 PM 53.1 °F - 37.9 °F 57% 29.65 in 10.0 mi WSW 11.5 mph - N/A   Clear
3:53 PM 50.0 °F - 36.0 °F 59% 29.68 in 10.0 mi SW 13.8 mph - N/A   Clear
4:53 PM 48.9 °F - 35.1 °F 59% 29.70 in 10.0 mi SW 9.2 mph 19.6 mph N/A   Scattered Clouds
5:53 PM 46.9 °F - 34.0 °F 61% 29.74 in 10.0 mi WSW 5.8 mph - N/A   Partly Cloudy
6:53 PM 46.0 °F 43.1 °F 34.0 °F 63% 29.75 in 10.0 mi WSW 5.8 mph - N/A   Partly Cloudy
7:53 PM 42.1 °F - 34.0 °F 73% 29.77 in 10.0 mi Calm Calm - N/A   Partly Cloudy
8:53 PM 43.0 °F 41.3 °F 34.0 °F 71% 29.79 in 10.0 mi WSW 3.5 mph - N/A   Partly Cloudy
9:53 PM 41.0 °F 38.0 °F 34.0 °F 76% 29.81 in 10.0 mi SW 4.6 mph - N/A   Clear
10:53 PM 43.0 °F 40.3 °F 34.0 °F 71% 29.83 in 10.0 mi SW 4.6 mph - N/A   Overcast
11:53 PM 42.8 °F 40.1 °F 33.8 °F 70% 29.85 in 10.0 mi WSW 4.6 mph - N/A   Overcast